Temp
-1 -1 -1 -1 1 1 2 1 2 3 3 3 2 4 5 5 5 5 5 5 6 6 6 6 6 6 7 7 7 7 7 6 6 6 6 6 6 6 5 5 5 4 4 4
-1 0 1 1 0 1 0 0 3 3 3 4 4 4 5 5 4 4 4 4 5 5 6 6 5 6 6 6 7 7 7 7 6 6 6 6 6 5 5 5 5 5 4 4
-1 0 0 1 1 2 3 3 3 3 4 4 4 4 3 3 3 3 3 3 4 4 4 5 6 5 5 5 6 6 7 7 7 7 7 7 6 6 6 5 5 5 5 4
-1 -1 -1 1 3 2 2 3 3 4 2 1 3 2 2 2 3 2 2 3 3 3 4 4 5 6 5 4 4 6 6 6 7 6 6 6 6 6 6 6 6 5 5 5
-2 -1 0 1 2 2 3 3 3 2 1 1 1 2 2 1 2 1 0 1 1 1 4 4 4 5 5 5 5 3 5 6 6 6 6 6 6 6 6 6 6 6 5 5
-2 -2 -1 1 1 1 2 2 1 -0 -2 -0 0 2 0 1 0 1 0 -0 -0 -0 2 3 4 4 4 5 5 5 3 2 4 5 5 6 6 6 6 6 6 5 5 5
-4 -3 -1 0 0 1 2 -0 -2 -2 -2 -2 -0 1 1 0 -1 -1 -1 -0 -1 -1 2 1 2 3 4 4 5 5 4 4 4 5 5 5 5 5 5 4 4 4 5 5
-4 -3 -2 -1 -1 -0 -2 -2 -3 -3 -3 -2 -1 -1 -1 -0 -0 -1 -1 -1 -0 0 1 1 1 1 2 3 4 4 4 4 3 4 4 4 5 4 4 4 4 4 4 4
-3 -3 -2 -2 -2 -3 -3 -3 -3 -3 -3 -2 -2 -1 -1 -1 -0 -0 -0 0 0 0 0 0 1 1 2 2 2 3 3 3 4 2 2 3 2 3 4 3 3 2 2 2
-3 -4 -3 -3 -3 -3 -4 -4 -4 -3 -3 -2 -2 -2 -2 -1 -1 -1 -1 -1 -0 -0 -0 -0 -0 0 1 1 1 1 2 3 3 3 2 1 1 1 2 2 2 1 0 -1
-3 -4 -4 -4 -4 -4 -4 -3 -3 -3 -3 -3 -2 -2 -2 -2 -2 -2 -2 -2 -2 -1 -1 -1 -1 -1 -1 -0 -0 0 0 -0 0 1 2 2 1 -0 1 1 0 0 0 1
-4 -4 -5 -5 -5 -5 -4 -4 -3 -3 -3 -3 -3 -3 -3 -3 -3 -3 -3 -3 -3 -2 -2 -1 -1 -1 -1 -1 -1 -1 -1 -1 -2 -1 0 0 -0 -0 -0 -0 0 0 -0 -0
-5 -5 -5 -5 -4 -4 -4 -4 -4 -3 -4 -3 -3 -3 -3 -3 -3 -3 -3 -3 -3 -3 -2 -2 -2 -2 -2 -2 -2 -1 -3 -3 -3 -3 -3 -3 -3 -2 -1 -1 -1 -1 -3 0
-5 -5 -5 -5 -4 -4 -4 -4 -4 -4 -4 -4 -4 -3 -4 -4 -4 -4 -4 -4 -3 -4 -4 -3 -4 -3 -3 -2 -2 -2 -3 -3 -3 -4 -3 -4 -4 -4 -3 -3 -4 -4 -4 -3
-5 -5 -5 -4 -4 -4 -4 -4 -4 -4 -4 -4 -4 -4 -4 -4 -4 -4 -4 -4 -4 -4 -4 -4 -4 -4 -3 -3 -3 -3 -4 -4 -4 -4 -4 -4 -4 -5 -4 -4 -5 -4 -4 -5
-5 -5 -5 -5 -5 -5 -5 -5 -5 -5 -5 -5 -5 -5 -5 -5 -5 -5 -5 -5 -5 -5 -5 -4 -4 -4 -4 -4 -4 -4 -5 -5 -5 -4 -4 -5 -5 -6 -5 -6 -6 -7 -7 -8
-6 -6 -6 -6 -6 -5 -5 -5 -5 -5 -5 -5 -5 -6 -6 -6 -5 -5 -6 -6 -6 -6 -6 -6 -6 -6 -6 -6 -6 -7 -6 -7 -6 -7 -8 -8 -8 -8 -8 -9 -9 -9 -9 -10
-6 -6 -6 -6 -6 -6 -6 -6 -6 -6 -6 -6 -7 -7 -7 -7 -7 -6 -7 -7 -8 -8 -9 -9 -8 -9 -8 -8 -8 -8 -9 -9 -9 -10 -10 -10 -10 -10 -10 -10 -10 -11 -11 -11
-7 -7 -7 -7 -7 -7 -7 -7 -7 -7 -7 -8 -8 -8 -8 -8 -9 -9 -10 -10 -10 -10 -11 -11 -10 -11 -11 -11 -11 -11 -11 -11 -11 -11 -11 -11 -11 -11 -12 -11 -12 -12 -12 -12
-8 -8 -8 -8 -9 -9 -9 -9 -9 -9 -9 -10 -10 -10 -10 -11 -11 -11 -12 -12 -12 -12 -12 -12 -12 -13 -13 -13 -12 -12 -12 -12 -12 -12 -12 -12 -12 -12 -12 -12 -12 -12 -13 -13
-9 -10 -10 -11 -11 -11 -11 -11 -11 -12 -12 -12 -12 -12 -13 -13 -13 -14 -14 -13 -14 -13 -13 -13 -13 -13 -13 -13 -13 -13 -13 -13 -13 -13 -13 -13 -13 -13 -13 -13 -14 -14 -14 -14
-11 -12 -12 -12 -12 -13 -13 -13 -14 -14 -14 -14 -15 -15 -15 -15 -15 -15 -15 -15 -15 -14 -14 -14 -14 -14 -14 -14 -13 -13 -13 -13 -14 -14 -14 -14 -14 -15 -15 -15 -15 -15 -16 -16
-14 -14 -14 -14 -14 -15 -15 -15 -15 -15 -16 -16 -16 -16 -15 -15 -15 -15 -15 -15 -15 -15 -15 -15 -14 -14 -14 -14 -14 -14 -14 -14 -15 -15 -15 -15 -16 -16 -16 -16 -17 -17 -17 -17
-14 -15 -15 -15 -15 -15 -16 -16 -16 -16 -16 -16 -16 -15 -15 -15 -15 -15 -15 -16 -16 -16 -15 -15 -15 -15 -15 -15 -15 -15 -16 -16 -16 -16 -16 -17 -17 -17 -17 -17 -18 -18 -18 -18
-15 -15 -15 -15 -16 -16 -16 -16 -16 -16 -16 -16 -16 -16 -16 -16 -16 -17 -17 -16 -16 -16 -16 -16 -16 -16 -16 -16 -17 -17 -17 -17 -17 -17 -18 -18 -18 -18 -18 -18 -18 -19 -19 -19
-16 -16 -16 -16 -17 -17 -17 -17 -17 -17 -16 -16 -17 -17 -17 -17 -17 -17 -17 -17 -17 -17 -17 -17 -17 -17 -18 -18 -18 -18 -18 -18 -19 -19 -19 -19 -19 -19 -19 -19 -19 -20 -20 -20
-17 -17 -17 -17 -17 -17 -17 -17 -17 -17 -18 -18 -17 -17 -17 -17 -17 -18 -18 -18 -18 -18 -18 -18 -18 -18 -19 -19 -19 -19 -19 -19 -19 -19 -19 -19 -20 -20 -20 -20 -20 -21 -21 -21
Height
2995 2993 2990 2991 2993 2993 2997 3001 3002 3002 3001 3003 3006 3007 3008 3008 3008 3011 3013 3013 3015 3015 3016 3017 3015 3015 3016 3018 3020 3022 3024 3025 3026 3027 3029 3030 3031 3033 3034 3034 3036 3038 3040 3041
2992 2993 2992 2992 2992 2992 2994 2995 2996 2998 2999 3000 3001 3004 3005 3005 3006 3007 3008 3007 3007 3006 3010 3012 3012 3012 3012 3013 3013 3015 3017 3020 3021 3022 3023 3024 3024 3025 3027 3028 3029 3031 3032 3033
2991 2991 2989 2987 2987 2989 2986 2989 2993 2995 2995 2997 2998 2999 2999 3000 2999 2999 3000 3000 3002 3002 3002 3006 3006 3006 3009 3009 3009 3007 3011 3013 3014 3015 3016 3016 3017 3017 3019 3020 3021 3022 3024 3025
2992 2991 2990 2985 2985 2988 2988 2990 2992 2993 2990 2994 2995 2998 2997 2994 2995 2995 2996 2997 2996 2994 2995 2996 2999 3001 3000 3002 3002 3003 3004 3005 3007 3008 3009 3009 3009 3010 3011 3011 3012 3014 3015 3017
2989 2988 2987 2984 2985 2988 2987 2989 2988 2988 2986 2989 2990 2994 2993 2993 2993 2993 2994 2993 2991 2988 2988 2987 2989 2991 2994 2997 2997 2998 2996 2998 2999 3000 3000 3001 3001 3004 3004 3003 3004 3005 3006 3007
2985 2985 2981 2983 2981 2981 2984 2988 2986 2987 2987 2987 2987 2987 2988 2989 2990 2992 2992 2991 2988 2983 2979 2984 2983 2986 2988 2988 2990 2989 2987 2989 2987 2988 2990 2991 2994 2993 2995 2994 2996 2996 2996 2997
2981 2981 2978 2978 2977 2977 2981 2988 2982 2983 2982 2981 2982 2984 2987 2988 2990 2991 2991 2989 2982 2978 2975 2980 2979 2978 2978 2979 2981 2982 2981 2980 2980 2980 2979 2981 2982 2984 2985 2986 2986 2988 2987 2987
2978 2978 2978 2976 2977 2980 2979 2978 2980 2979 2979 2980 2982 2983 2984 2985 2985 2983 2980 2978 2978 2976 2975 2973 2972 2972 2971 2970 2971 2971 2972 2974 2972 2970 2971 2970 2971 2971 2972 2974 2974 2975 2976 2976
2970 2971 2972 2972 2972 2973 2975 2976 2976 2976 2976 2978 2979 2980 2980 2978 2978 2978 2975 2974 2974 2972 2972 2969 2966 2964 2964 2964 2962 2960 2960 2962 2962 2963 2963 2963 2962 2962 2962 2962 2962 2963 2965 2966
2967 2966 2966 2961 2963 2968 2971 2971 2971 2973 2973 2974 2974 2973 2973 2971 2972 2972 2969 2969 2969 2968 2966 2965 2962 2960 2958 2956 2954 2952 2950 2949 2950 2951 2951 2952 2953 2952 2951 2952 2952 2952 2948 2948
2962 2961 2962 2959 2961 2964 2965 2968 2969 2969 2968 2967 2967 2966 2966 2964 2965 2965 2964 2963 2962 2960 2959 2958 2957 2955 2952 2950 2947 2944 2943 2940 2938 2939 2940 2939 2938 2940 2941 2940 2940 2939 2938 2938
2958 2959 2959 2958 2961 2963 2963 2963 2963 2963 2963 2962 2961 2960 2960 2958 2959 2957 2957 2956 2954 2954 2952 2951 2949 2948 2946 2944 2941 2938 2935 2933 2929 2927 2928 2927 2926 2926 2925 2923 2924 2923 2922 2922
2958 2957 2958 2957 2958 2960 2959 2958 2958 2957 2957 2957 2955 2954 2953 2952 2951 2950 2949 2947 2946 2945 2944 2943 2941 2940 2938 2937 2934 2932 2929 2927 2921 2922 2920 2917 2914 2912 2913 2911 2911 2909 2905 2904
2957 2958 2956 2956 2955 2958 2956 2954 2953 2953 2953 2952 2951 2949 2947 2946 2946 2944 2942 2940 2938 2937 2936 2935 2934 2933 2932 2930 2927 2925 2923 2922 2918 2916 2914 2913 2911 2911 2908 2908 2910 2908 2900 2897
2955 2955 2955 2954 2951 2949 2951 2951 2949 2949 2947 2946 2945 2944 2942 2940 2938 2936 2935 2934 2932 2930 2929 2927 2926 2925 2924 2922 2920 2919 2917 2915 2913 2911 2911 2909 2904 2907 2901 2903 2904 2903 2903 2899
2950 2949 2950 2949 2948 2946 2945 2945 2943 2941 2940 2938 2937 2936 2935 2933 2931 2929 2927 2926 2924 2923 2921 2919 2918 2917 2916 2915 2913 2912 2911 2910 2908 2906 2905 2903 2902 2901 2899 2900 2900 2898 2901 2900
2944 2944 2944 2943 2943 2940 2938 2937 2935 2934 2932 2931 2929 2927 2926 2925 2924 2922 2920 2918 2917 2916 2915 2913 2910 2909 2908 2907 2906 2906 2904 2903 2902 2901 2900 2899 2898 2897 2897 2898 2896 2898 2899 2898
2936 2936 2936 2935 2934 2932 2930 2929 2928 2926 2924 2923 2922 2920 2919 2918 2917 2915 2914 2913 2912 2911 2910 2908 2905 2903 2903 2902 2901 2901 2900 2899 2898 2898 2897 2897 2896 2896 2895 2894 2893 2896 2896 2895
2930 2928 2927 2926 2925 2923 2922 2921 2920 2919 2918 2916 2915 2914 2913 2912 2911 2910 2909 2909 2908 2907 2907 2906 2904 2902 2901 2899 2899 2899 2898 2897 2897 2896 2896 2896 2895 2895 2894 2892 2894 2894 2892 2890
2924 2922 2920 2919 2917 2916 2915 2913 2912 2911 2910 2910 2909 2908 2908 2908 2907 2906 2906 2905 2905 2905 2904 2903 2903 2902 2901 2900 2899 2898 2898 2897 2896 2896 2895 2894 2893 2892 2890 2890 2890 2888 2886 2886
2918 2917 2914 2912 2911 2910 2908 2907 2906 2906 2906 2905 2905 2905 2905 2905 2905 2905 2904 2904 2904 2903 2903 2902 2901 2901 2900 2899 2898 2897 2896 2895 2894 2893 2893 2891 2890 2889 2888 2887 2886 2884 2883 2882
2915 2913 2912 2910 2909 2907 2906 2906 2905 2905 2904 2904 2904 2904 2905 2905 2905 2904 2904 2904 2903 2902 2902 2901 2900 2899 2898 2898 2896 2895 2893 2892 2891 2889 2888 2886 2885 2884 2882 2880 2879 2878 2876 2875
2913 2912 2911 2910 2909 2908 2907 2906 2906 2905 2905 2905 2905 2905 2905 2905 2905 2904 2904 2902 2901 2900 2900 2899 2898 2897 2895 2894 2892 2891 2890 2888 2887 2885 2884 2882 2881 2880 2878 2876 2874 2872 2871 2870
2914 2913 2912 2911 2911 2910 2910 2909 2909 2908 2908 2907 2907 2906 2905 2904 2903 2902 2901 2900 2899 2898 2897 2896 2894 2893 2892 2890 2889 2888 2886 2884 2883 2882 2880 2878 2876 2874 2873 2871 2869 2868 2866 2865
2915 2914 2914 2913 2912 2911 2911 2910 2909 2908 2907 2906 2905 2904 2902 2901 2900 2899 2898 2897 2896 2895 2893 2893 2891 2890 2888 2887 2886 2884 2883 2881 2879 2877 2875 2874 2872 2870 2868 2867 2865 2863 2861 2860
2915 2914 2913 2912 2911 2910 2909 2908 2907 2906 2904 2903 2902 2901 2900 2899 2897 2896 2895 2894 2893 2892 2890 2889 2887 2886 2885 2883 2881 2880 2878 2876 2874 2873 2871 2869 2867 2865 2863 2861 2860 2858 2856 2854
2913 2912 2911 2910 2909 2908 2906 2905 2904 2902 2901 2900 2899 2898 2897 2895 2894 2893 2892 2891 2889 2888 2887 2885 2884 2882 2880 2879 2877 2875 2874 2872 2870 2868 2866 2864 2862 2860 2858 2856 2854 2852 2850 2848
Wind_Speed
11 15 10 4 13 15 24 28 20 15 18 14 6 9 8 7 10 11 13 13 10 8 7 13 21 18 20 24 28 27 30 30 29 29 29 30 30 29 29 31 30 30 30 30
15 10 11 12 9 11 9 15 11 9 15 12 15 16 12 10 9 9 10 12 11 15 17 15 7 25 25 23 27 32 33 34 35 34 33 33 35 37 36 34 34 35 36 36
15 11 13 13 13 12 10 9 10 14 15 10 8 4 4 7 10 13 15 15 17 18 21 20 20 7 23 26 25 27 29 28 29 30 29 27 29 31 33 36 35 35 35 38
15 13 4 9 3 5 6 14 16 16 8 5 7 2 5 7 12 15 17 19 23 26 27 25 24 26 24 19 27 28 27 28 31 32 32 31 30 29 31 33 34 35 36 37
10 12 16 19 7 4 5 7 9 11 4 4 2 8 6 7 14 8 14 15 14 20 31 36 27 25 24 22 25 26 32 30 32 31 38 38 36 31 31 34 34 34 34 34
8 9 5 9 20 12 12 13 6 4 1 3 5 5 2 10 14 8 14 15 20 24 25 22 29 31 26 23 31 30 28 32 32 34 36 36 39 35 40 42 39 37 37 36
21 13 7 11 5 7 11 6 6 3 4 4 3 7 17 13 10 10 12 10 15 20 30 21 24 27 33 33 33 32 30 27 29 31 31 35 42 44 44 46 38 43 42 45
18 11 15 3 6 8 8 8 6 4 2 4 3 5 8 11 10 7 7 18 20 24 27 25 26 26 27 34 37 37 34 38 35 37 36 34 35 39 50 54 52 51 53 51
14 16 6 8 12 13 13 8 3 5 6 8 11 13 13 16 17 19 24 26 24 24 25 24 24 25 30 30 32 37 40 35 34 42 44 45 44 43 38 44 54 53 52 55
20 14 11 9 15 14 10 8 12 8 12 15 15 18 17 20 20 21 24 24 24 26 27 27 26 24 24 29 35 32 32 33 35 41 39 41 44 48 42 40 46 48 50 55
10 9 15 12 8 7 7 12 12 15 19 22 23 24 23 25 22 23 23 21 23 25 28 29 30 29 26 26 26 28 35 19 21 27 35 37 41 42 42 46 44 47 50 51
7 6 4 4 4 9 17 21 22 24 25 26 27 27 26 30 26 26 25 23 24 27 27 29 32 33 28 27 26 26 26 31 20 18 23 34 42 45 45 43 47 50 54 57
6 4 12 19 23 20 23 25 25 25 25 25 26 28 29 30 28 30 29 28 27 27 28 25 27 26 24 24 24 25 27 26 29 32 31 13 16 21 33 37 41 43 36 49
12 13 18 21 24 22 24 23 24 23 23 25 26 25 24 26 26 26 27 29 29 27 28 27 26 28 31 27 26 25 23 22 24 21 20 30 33 25 19 22 19 17 22 17
14 19 20 19 24 25 21 20 24 25 24 23 23 24 25 27 28 28 29 30 29 28 30 28 26 26 28 29 29 28 26 25 26 25 24 25 28 22 22 20 19 22 24 20
20 24 25 25 23 25 28 28 30 30 28 27 27 27 27 26 27 27 28 30 31 31 34 29 29 27 26 27 29 29 26 25 25 26 25 21 19 18 19 19 18 17 15 12
20 23 21 23 26 29 29 28 29 29 30 30 30 29 29 28 27 27 28 28 28 28 28 23 21 23 26 28 26 22 20 16 16 15 12 12 12 11 12 12 11 11 11 11
31 29 27 27 26 26 28 27 28 28 28 29 28 28 26 25 24 23 23 24 21 21 16 15 13 7 10 12 12 12 10 9 8 7 7 7 7 8 9 9 10 12 13 14
26 27 26 25 25 26 25 25 25 26 25 25 25 24 22 20 18 16 15 15 14 13 13 14 13 7 5 6 6 6 6 6 6 7 7 7 7 8 8 9 11 13 15 17
22 24 24 23 23 22 21 21 21 20 20 19 18 16 15 13 11 11 10 10 9 10 9 8 6 3 2 2 2 3 4 5 6 7 8 9 11 12 13 15 16 17 18 19
20 19 18 17 16 15 14 14 13 12 12 11 10 10 9 8 7 5 3 4 6 5 4 3 2 2 4 5 6 7 8 9 10 11 13 14 15 16 16 17 17 17 17 18
14 13 11 11 9 7 6 5 4 3 3 3 3 3 3 4 4 3 2 1 2 3 4 5 6 8 9 10 11 12 12 13 13 13 14 15 15 15 16 16 16 16 16 17
7 7 7 7 6 5 4 3 2 3 3 2 2 2 2 2 3 5 6 6 6 6 8 10 11 12 13 14 14 15 15 15 15 15 15 15 15 15 15 16 16 17 18 18
6 6 6 5 5 4 4 4 3 2 2 3 4 6 7 8 8 8 7 8 9 10 12 13 14 14 15 15 15 15 15 16 16 16 16 16 16 17 17 18 18 18 18 18
6 5 5 4 4 4 4 6 7 9 10 11 11 11 9 8 9 10 11 12 12 13 13 13 14 14 14 14 14 14 15 15 16 16 16 16 17 17 17 17 18 18 18 19
9 9 9 9 9 9 11 12 13 13 13 12 12 12 12 12 12 13 13 13 13 13 13 13 13 13 14 14 15 15 16 16 16 16 16 17 17 18 18 18 19 19 19 19
11 12 12 12 13 15 16 16 16 15 14 14 14 14 14 13 13 13 12 12 12 12 13 13 14 14 15 15 15 16 16 16 17 17 18 18 19 19 20 20 20 20 20 20
Wind_Direction
298 299 320 267 235 225 219 223 230 238 251 268 243 250 269 261 267 282 298 299 239 264 278 288 295 283 261 251 249 248 247 251 256 260 261 264 263 261 260 259 260 259 257 256
298 309 283 283 256 256 210 236 225 256 259 277 295 276 262 249 269 276 270 265 264 260 242 228 266 281 283 270 261 254 252 256 261 265 267 266 265 266 264 263 261 258 260 259
284 306 307 289 259 258 275 276 273 263 275 279 218 209 238 257 281 273 264 262 252 250 250 233 222 245 267 280 273 269 253 249 255 262 265 265 263 260 262 262 262 261 263 263
274 293 260 254 227 252 257 241 243 261 256 199 196 203 301 241 268 279 281 273 268 266 260 255 238 231 228 239 273 267 260 255 254 260 263 265 267 267 263 260 260 260 262 266
231 239 259 271 252 256 286 306 275 227 267 187 71 183 228 235 258 320 329 316 296 285 265 260 248 244 247 241 247 261 272 266 261 266 257 259 262 267 267 263 261 262 262 261
236 228 245 264 270 267 249 240 255 78 165 97 103 155 246 305 316 291 322 327 331 310 286 283 271 266 263 257 254 257 242 269 272 266 261 254 259 258 260 266 263 260 256 255
230 245 263 246 241 176 202 171 144 105 62 78 153 248 258 296 342 341 319 317 284 291 292 315 305 282 266 261 251 250 258 263 269 273 265 254 254 258 264 261 260 266 265 261
222 239 241 219 250 240 181 157 84 74 26 259 275 284 291 284 286 284 280 267 275 295 311 312 296 294 293 271 263 261 260 259 259 265 269 275 274 271 258 256 251 253 257 263
201 224 207 246 220 185 186 183 205 238 291 295 295 290 292 290 287 298 295 294 303 305 306 310 317 303 288 288 280 267 262 257 256 259 265 268 273 277 277 263 252 251 256 265
211 218 204 189 169 191 176 190 228 271 295 302 306 302 304 296 298 299 295 295 288 287 293 297 302 303 308 297 284 287 272 258 261 256 261 267 266 262 263 267 264 263 264 252
234 229 253 181 129 146 243 269 287 294 298 301 301 298 298 293 299 297 296 297 292 286 289 290 295 295 302 303 303 306 279 289 273 267 261 266 267 260 262 259 257 261 264 257
202 161 126 347 305 309 306 307 302 296 297 297 295 292 293 292 296 292 288 288 291 292 293 289 290 282 287 294 300 311 309 281 287 267 262 263 258 264 260 256 253 244 252 254
247 241 275 292 304 311 309 303 301 300 303 303 300 295 290 290 294 294 288 287 290 292 290 284 286 279 286 294 303 306 301 309 327 303 330 295 292 267 254 249 247 243 230 233
255 279 286 294 294 297 297 294 295 297 304 300 300 304 300 296 294 296 289 285 286 285 283 279 282 288 283 289 302 308 314 309 305 316 305 300 317 313 295 287 295 290 276 275
269 280 287 293 296 301 298 293 296 301 302 303 302 300 300 301 298 292 285 286 287 285 282 281 283 287 287 291 292 300 299 295 302 296 290 297 311 291 297 274 279 289 284 283
272 280 287 287 288 294 294 293 295 295 296 296 296 296 298 302 307 300 295 287 287 290 282 273 275 275 283 286 289 291 293 291 288 289 295 298 291 288 283 281 284 282 278 280
281 288 286 283 289 291 290 290 288 287 288 289 290 291 293 295 297 307 303 298 291 281 273 269 271 280 286 289 291 288 284 284 284 285 288 288 287 286 285 286 288 287 285 290
288 286 290 289 288 287 288 286 285 285 287 288 287 287 289 289 288 292 297 293 287 277 271 275 270 268 281 286 286 290 293 298 304 304 303 301 299 296 294 296 295 294 298 302
284 287 289 289 289 289 288 286 283 282 283 284 284 285 283 278 277 277 277 278 278 283 292 297 288 288 291 292 296 295 299 301 300 301 300 303 304 301 305 306 302 299 299 300
288 289 289 289 286 283 283 283 284 284 282 280 277 271 266 267 271 271 270 270 279 289 290 271 271 290 316 337 336 329 321 314 310 304 299 299 299 299 299 294 292 294 295 297
298 297 298 298 297 296 294 292 290 283 275 266 260 254 251 248 241 235 256 279 285 273 264 256 259 279 291 295 297 300 301 300 297 295 294 293 293 293 292 293 293 293 293 294
308 313 317 315 313 314 310 300 281 254 226 209 200 203 219 235 241 225 201 208 253 275 284 292 304 317 319 312 306 304 305 304 303 302 301 300 299 298 297 296 296 297 298 299
346 352 356 -0 5 13 21 42 77 100 104 121 152 177 190 215 254 266 273 283 309 327 327 320 314 310 311 313 313 312 311 310 309 308 306 304 301 301 302 303 303 303 302 303
3 5 9 14 22 30 35 28 25 15 340 308 297 293 288 284 280 290 307 321 324 315 309 306 305 306 306 306 306 307 308 308 307 306 304 305 306 305 305 304 304 303 302 302
320 318 317 314 310 312 311 309 308 304 302 300 295 290 292 304 316 317 315 308 304 303 302 301 302 303 304 305 306 306 305 304 304 305 305 304 304 304 303 302 301 300 300 300
296 292 289 286 287 292 298 301 303 301 297 298 304 313 313 310 304 300 299 300 301 301 302 303 305 306 307 307 308 309 310 310 310 310 309 309 308 306 305 303 302 300 300 299
288 285 284 286 290 296 299 299 300 302 305 305 302 300 299 298 298 298 298 299 300 302 303 305 306 308 309 310 311 311 312 311 310 309 308 306 305 303 302 301 300 299 298 298